User: anonymous   Login
Location: Potawatomi Wildlife Park
(41.2308°N, 86.1050°W)
Time: 07:47:12
(UTC-04:00)
Language:

SL-16 R/B - Orbit

View from above orbital plane
View from above orbital plane
View from above satellite
View from above satellite

Ground track
Ground track

The orbit data is extracted from the following two-line orbital elements,

1 27006U 01056F   15184.52783289 -.00000014  00000-0  31506-4 0  9995
2 27006 099.2094 340.6575 0014871 018.6161 022.6448 13.70959256678570
Epoch (UTC): 03 July 2015 12:40:04
Eccentricity: 0.0014871
inclination: 99.2094°
perigee height: 985 km
apogee height: 1007 km
right ascension of ascending node: 340.6575°
argument of perigee: 18.6161°
revolutions per day: 13.70959256
mean anomaly at epoch: 22.6448°
orbit number at epoch: 67857

The dashed part of the orbit path shows where the satellite is in the earth's shadow,  

DLR